Location: Iroquois Falls
(48.7680°N, 80.6732°W)
Time: 08:02:54
(UTC-05:00)

ISS - Visible Passes

Search period start: 22 January 2026 00:00
Search period end: 01 February 2026 00:00
Orbit: 413 x 423 km, 51.6° (Epoch: 22 January)

Date Brightness Start Highest point End Pass type
(mag) Time Alt. Az. Time Alt. Az. Time Alt. Az.
22 Jan -3.3 18:05:32 10° WNW 18:08:48 49° N 18:11:08 17° ENE visible
22 Jan -1.7 19:42:26 10° WNW 19:44:04 27° WNW 19:44:04 27° WNW visible
23 Jan -3.8 18:54:26 10° WNW 18:57:46 68° NNE 18:58:08 61° ENE visible
24 Jan -3.6 18:06:23 10° WNW 18:09:41 57° N 18:12:14 16° E visible
24 Jan -1.8 19:43:13 10° WNW 19:45:10 30° W 19:45:10 30° W visible
25 Jan -3.7 18:55:07 10° WNW 18:58:27 71° SSW 18:59:21 44° SE visible
26 Jan -3.8 18:07:01 10° WNW 18:10:22 85° NNE 18:13:35 11° ESE visible
26 Jan -1.6 19:44:09 10° W 19:46:33 23° SW 19:46:33 23° SW visible
27 Jan -2.3 18:55:47 10° W 18:58:52 34° SSW 19:00:56 17° SSE visible
28 Jan -2.9 18:07:33 10° WNW 18:10:48 51° SSW 18:14:03 10° SE visible
28 Jan -0.6 19:46:36 10° SW 19:46:56 10° SW 19:47:16 10° SW visible
29 Jan -0.9 18:56:51 10° W 18:58:58 16° SW 19:01:06 10° S visible
30 Jan -1.3 18:08:11 10° W 18:10:57 24° SW 18:13:42 10° SSE visible
